CYGNUS NG-14

Last updated on Wed Jan 27 2021 00:02:12 GMT+0000 (Coordinated Universal Time)

1 46530U 20069A 21026.81390977 .00360634 11342-4 13934-3 0 9990 2 46530 51.6463 325.0090 0143595 303.0801 141.7050 16.03315024 17906

Satellite not in orbit